sat.trackr.live / text

‹ back to catalog

COSMOS 2498 (RODNIK-S *)

NORAD 39763 · 2014-028C

PAYLOAD ACTIVE UNKNOWN

§ Identity

Operator
Country
CIS
Launch date
2014-05-23
Launch site
PLMSC
Launch vehicle
Mass (kg)
RCS (m²)
1.76

External: N2YO · Heavens-Above · Gunter

§ Orbital elements

Epoch: 2026-09-20T04:42:53.711136Z

Period
115.85 min
Inclination
82.4458°
Eccentricity
0.0020756
Mean motion
12.42983373 rev/d
Perigee alt
1,477.6 km
Apogee alt
1,510.3 km
Semi-major
7,872.1 km
B*
4.7022e-4
RAAN
49.3710°
Arg perigee
225.4330°
Mean anomaly
134.5055°
Rev number
55,935

§ Raw data

COSMOS 2498 (RODNIK-S *)1 39763U 14028C   26263.19645499  .00000075  00000+0  47022-3 0  99982 39763  82.4458  49.3710 0020756 225.4330 134.5055 12.42983373559356

JSON: /api/v1/satellites/39763 · /tle

For live sub-satellite position, see the globe view (requires WebGL).

§ Visibility from observer

Set your observer location to see the next 7 days of passes ≥ 10°. The values pass through the URL so the page stays shareable.

No JS? Fill the form by hand. The geolocation button needs JavaScript.

§ Radio — SatNOGS DB

ModeDescriptionDownlinkUplink
FM UHF Unknown 388.687 MHz
FM UHF Unknown 388.187 MHz

2 transmitters · refreshed weekly from db.satnogs.org